Regional Weather Roundup
Issued by NWS

Home | Current Version | Previous Version | Text Only | Print | Product List | Glossary Off
Versions: 1 2 3 4 5 6 7 8 9 10 11 12 13 14 15 16 17 18 19 20 21 22 23 24 25 26 27 28 29 30 31 32 33 34 35 36 37 38 39 40 41 42 43 44 45 46 47 48 49 50

924
ASUS45 KABQ 290201
RWRNM
NEW MEXICO REGIONAL WEATHER ROUNDUP
NATIONAL WEATHER SERVICE ALBUQUERQUE NM
800 PM MDT THU JUL 28 2016

NOTE: "FAIR" MEANS FEW OR NO CLOUDS BELOW 12,000 FEET AGL WITH NO
       SIGNIFICANT WEATHER OR OBSTRUCTIONS TO VISION.

      THIS PRODUCT IS RELEASED AS TWO VERSIONS.  ONE VERSION NEAR
      THE TOP OF THE HOUR CONTAINING PRELIMINARY DATA FROM ALBUQUERQUE
      AND OTHER STATIONS.  A FINAL VERSION WITH ADDITIONAL DATA IS
      ISSUED ABOUT 10 MINUTES AFTER THE HOUR.

NMZ501-503-504-510>518-290300-
NORTHWEST PLATEAU/NORTHCENTRAL MOUNTAINS

CITY           SKY/WX    TMP DP  RH WIND       PRES   REMARKS
FARMINGTON     FAIR      93  30  10 NW10      30.06S
LOS ALAMOS     FAIR      78  36  22 SW6       30.28F
SANTA FE       FAIR      84  35  17 N8        30.19R
TAOS           FAIR      75  36  23 W6        30.26S
ANGEL FIRE     FAIR      69  36  29 SW5       30.37R

$$
NMZ402-403-502-505>509-290300-
WESTCENTRAL MOUNTAINS/SOUTHWEST MOUNTAINS

CITY           SKY/WX    TMP DP  RH WIND       PRES   REMARKS
GALLUP         FAIR      84  37  18 S9        30.19S
GRANTS         FAIR      84  32  15 SE5       30.22F
SILVER CITY    FAIR      85  53  32 E6        30.12R

$$
NMZ407-409-411-412-290300-
SOUTHERN DESERTS

CITY           SKY/WX    TMP DP  RH WIND       PRES   REMARKS
LORDSBURG      FAIR      91  48  22 SE5       30.00S
DEMING         NOT AVBL
LAS CRUCES     FAIR      91  43  18 SE6       30.03S
HOLLOMAN AFB   FAIR      94  48  20 W7        29.99R
ALAMOGORDO     FAIR      93  48  21 N9        30.01R
T OR C         FAIR      92  42  17 CALM      30.05R

$$
NMZ519>523-290300-
CENTRAL VALLEYS/CENTRAL HIGHLANDS

CITY           SKY/WX    TMP DP  RH WIND       PRES   REMARKS
ALBUQUERQUE    MOCLDY    89  43  20 SE7       30.10S
DOUBLE EAGLE   MOCLDY    86  46  25 VRB6      30.15R
MORIARTY ARPT  FAIR      82  44  26 SE7       30.20S
CLINES CORNERS FAIR      74  49  41 S9        30.28S
BELEN          FAIR      90  36  14 SE5       30.09R
SOCORRO        FAIR      91  45  20 SE3       30.06R

$$
NMZ524>526-539-540-290300-
SOUTHCENTRAL MOUNTAINS

CITY           SKY/WX    TMP DP  RH WIND       PRES   REMARKS
RUIDOSO        NOT AVBL

$$
NMZ527>531-290300-
NORTHEAST HIGHLANDS/NORTHEAST PLAINS

CITY           SKY/WX    TMP DP  RH WIND       PRES   REMARKS
LAS VEGAS      FAIR      76  39  26 SW9       30.24S
RATON          MOCLDY    74  53  48 E8        30.20R
CLAYTON        FAIR      82  44  26 W8        30.08F

$$
NMZ532>537-290300-
EASTCENTRAL PLAINS

CITY           SKY/WX    TMP DP  RH WIND       PRES   REMARKS
TUCUMCARI      FAIR      87  51  28 S8        30.04R
CANNON AFB     FAIR      82  58  44 SE8       30.08S
CLOVIS AIRPORT FAIR      82  54  36 SE7       30.09R

$$
NMZ028-029-538-290300-
SOUTHEAST PLAINS

CITY           SKY/WX    TMP DP  RH WIND       PRES   REMARKS
ROSWELL        FAIR      92  54  27 SE7       30.00R
ARTESIA        FAIR      90  59  35 S16       30.01R
CARLSBAD       FAIR      88  57  34 S8        29.99R
HOBBS          FAIR      86  55  35 SE8       30.05R


$$




USA.gov is the U.S. government's official web portal to all federal, state and local government web resources and services.